Weather in Degtyarsk

Russia / Sverdlovsk Oblast     56°41′54″N   60°05′12″E
temp.,
°C
wind,
m/s
gust,
m/s
humid.,
%
clouds,
%
prec.,
mm/h
press.,
hPa
HPBL,
m
13 april, tue
tue1323:00+2n12920 0.0 104112
02:00+1ne00900 0.0 104110
05:000sse11910 0.0 104210
08:00+4se12840 0.0 1042127
11:00+10s23625 0.0 1040584
14:00+14s23505 0.0 1037992
17:00+14sw35544 0.0 10361073
20:00+9wsw27925 0.0 1035142
14 april, wed
wed1423:00+8wsw41093100 0.0 1035454
02:00+7wsw4109577 0.0 1033342
05:00+7w4129258 0.0 1034397
08:00+7wsw3108930 0.0 1033331
11:00+12w477297 0.0 1032526
14:00+15w475533 0.0 1030861
17:00+15w465414 0.0 1029880
20:00+10wsw25829 0.0 102967
15 april, thu
thu1523:00+8wsw229112 0.0 102817
02:00+8wsw229199 0.0 102712
05:00+7sw229168 0.0 102720
08:00+10wsw398443 0.0 1025294
11:00+15wsw57555 0.0 1023854
14:00+17wsw58335 0.0 10211174
17:00+16wsw594111 0.0 10201266
20:00+12wsw39635 0.0 1019256
16 april, fri
fri1623:00+9wsw311790 0.0 1018288
02:00+8wsw398745 0.0 1017204
05:00+6w210895 0.0 1017213
08:00+6nne4792100 0.1 1019538
11:00+4ne4693100 1.2 1021597
14:00+4ne4672100 0.1 1022891
17:00+7ne455386 0.1 10221485
20:00+3ne37615 0.0 1024187
17 april, sat
sat1723:000nne22682 0.0 102524
02:00−1e11814 0.0 102510
05:00−2wsw008610 0.0 102510
08:00+1wnw12705 0.0 1025252
11:00+5nw4541100 0.1 10232065
14:00+6nw4636100 0.0 10222207
17:00+6nw4638100 0.0 10211934
20:00+3nw2559100 0.1 1021121